Weather History for Gwinn, MI

Change the Weather History Date:

Sunday, May 19, 2013

  Actual Average (KESC) Record (KESC)
Temperature  
Mean Temperature 64 °F -  
Max Temperature 78 °F 60 °F 87 °F (1998)
Min Temperature 50 °F 43 °F 26 °F (2002)
Degree Days  
Heating Degree Days 1    
Growing Degree Days 14 (Base 50)    
Moisture  
Dew Point 50 °F    
Average Humidity 75    
Maximum Humidity 90    
Minimum Humidity 47    
Precipitation  
Precipitation 0.00 in - - ()
Sea Level Pressure  
Sea Level Pressure 29.92 in    
Wind  
Wind Speed 8 mph (South)    
Max Wind Speed 13 mph    
Max Gust Speed 20 mph    
Visibility 10 miles    
Events Rain    
Averages and records for this station are not official NWS values.
T = Trace of Precipitation, MM = Missing Value Source: NWS Daily Summary

Daily Weather History Graph

Daily Weather History Graph

Search for Another Location

Airport:

Trip Planner

Search our weather history database for the weather conditions in past years. The results will help you decide how hot, cold, wet, or windy it might be!

Date:

Astronomy

May. 19, 2013 Rise Set
Actual Time 6:11 AM EDT 9:21 PM EDT
Civil Twilight 5:35 AM EDT 9:57 PM EDT
Nautical Twilight 4:48 AM EDT 10:44 PM EDT
Astronomical Twilight 3:51 AM EDT 11:42 PM EDT
Moon 3:05 PM EDT (5/19) 2:56 AM EDT (5/19)
Length of Visible Light 16h 21m
Length of Day
15h 09m
Waxing Gibbous, 65% of the Moon is Illuminated
May 19
Waxing Gibbous
May 25
Full
May 31
Last Quarter
Jun 8
New
Jun 16
First Quarter

Hourly Weather History & Observations

Time (EDT) Temp. Dew Point Humidity Pressure Visibility Wind Dir Wind Speed Gust Speed Precip Events Conditions
12:17 AM 55.6 °F 45.1 °F 68% 29.97 in 10.0 mi South 9.2 mph - N/A   Overcast
12:37 AM 55.4 °F 45.1 °F 68% 29.97 in 10.0 mi South 9.2 mph - N/A   Overcast
12:57 AM 55.0 °F 45.3 °F 70% 29.96 in 10.0 mi South 9.2 mph - N/A   Overcast
1:17 AM 54.7 °F 45.5 °F 71% 29.95 in 10.0 mi South 8.1 mph - N/A   Overcast
1:37 AM 54.5 °F 45.5 °F 72% 29.95 in 10.0 mi South 9.2 mph - N/A   Mostly Cloudy
1:57 AM 54.5 °F 45.5 °F 72% 29.95 in 10.0 mi South 9.2 mph - N/A   Scattered Clouds
2:16 AM 54.5 °F 45.3 °F 71% 29.95 in 10.0 mi SSW 10.4 mph - N/A   Mostly Cloudy
2:37 AM 52.9 °F 46.8 °F 80% 29.94 in 10.0 mi South 9.2 mph - N/A Rain Light Rain
2:57 AM 52.3 °F 46.9 °F 82% 29.94 in 10.0 mi South 9.2 mph - N/A   Light Drizzle
3:16 AM 52.0 °F 47.7 °F 85% 29.94 in 10.0 mi South 9.2 mph - N/A Rain Light Rain
3:37 AM 51.3 °F 47.8 °F 88% 29.94 in 10.0 mi SSW 6.9 mph - N/A   Mostly Cloudy
3:57 AM 51.3 °F 47.8 °F 88% 29.95 in 10.0 mi SW 4.6 mph - N/A   Overcast
4:17 AM 51.1 °F 48.2 °F 90% 29.95 in 10.0 mi SSW 4.6 mph - N/A   Overcast
4:37 AM 51.4 °F 47.3 °F 86% 29.94 in 10.0 mi South 6.9 mph - N/A   Mostly Cloudy
4:56 AM 51.3 °F 47.1 °F 86% 29.94 in 10.0 mi SSW 5.8 mph - N/A   Mostly Cloudy
5:17 AM 50.4 °F 46.9 °F 88% 29.95 in 10.0 mi WSW 4.6 mph - N/A   Scattered Clouds
5:37 AM 50.4 °F 46.9 °F 88% 29.95 in 10.0 mi SW 4.6 mph - N/A   Clear
5:56 AM 50.2 °F 46.8 °F 88% 29.95 in 10.0 mi SSW 5.8 mph - N/A   Mostly Cloudy
6:50 AM 50.0 °F 46.4 °F 87% 29.96 in 10.0 mi SW 6.9 mph - N/A   Mostly Cloudy
7:50 AM 53.6 °F 48.2 °F 82% 29.94 in 10.0 mi SSW 6.9 mph - N/A   Partly Cloudy
8:50 AM 57.2 °F 51.8 °F 82% 29.94 in 10.0 mi SSW 9.2 mph - N/A   Scattered Clouds
9:50 AM 60.8 °F 53.6 °F 77% 29.94 in 10.0 mi SSW 10.4 mph - N/A   Mostly Cloudy
10:50 AM 64.4 °F 55.4 °F 73% 29.94 in 10.0 mi WSW 4.6 mph - N/A   Overcast
11:50 AM 69.8 °F 57.2 °F 64% 29.92 in 10.0 mi SSW 9.2 mph - N/A   Overcast
12:50 PM 75.2 °F 59.0 °F 57% 29.92 in 10.0 mi SSW 5.8 mph - N/A   Overcast
2:55 PM 78.8 °F 57.2 °F 47% 29.85 in 10.0 mi SE 10.4 mph - N/A   Clear
3:50 PM 75.2 °F 57.2 °F 53% 29.85 in 10.0 mi NNE 5.8 mph - N/A   Scattered Clouds
4:50 PM 78.8 °F 59.0 °F 51% 29.85 in 10.0 mi SSE 11.5 mph 18.4 mph N/A   Scattered Clouds
5:50 PM 75.2 °F 59.0 °F 57% 29.87 in 10.0 mi SSE 12.7 mph 19.6 mph N/A   Scattered Clouds
6:55 PM 73.4 °F 59.0 °F 61% 29.88 in 10.0 mi SSE 10.4 mph 18.4 mph N/A   Scattered Clouds
7:50 PM 71.6 °F 59.0 °F 64% 29.86 in 10.0 mi SE 8.1 mph - N/A   Clear
8:50 PM 62.6 °F 53.6 °F 72% 29.86 in 10.0 mi East 4.6 mph - N/A   Clear
10:17 PM 54.9 °F 49.1 °F 81% 29.86 in 10.0 mi ENE 4.6 mph - N/A   Clear
10:37 PM 54.9 °F 49.6 °F 83% 29.86 in 10.0 mi East 3.5 mph - N/A   Clear
10:57 PM 55.6 °F 50.0 °F 81% 29.86 in 10.0 mi ENE 4.6 mph - N/A   Clear
11:16 PM 55.6 °F 50.7 °F 84% 29.85 in 10.0 mi ENE 4.6 mph - N/A   Clear
11:37 PM 55.6 °F 50.5 °F 83% 29.86 in 10.0 mi Calm Calm - N/A   Clear
11:57 PM 55.6 °F 51.1 °F 85% 29.86 in 5.0 mi ENE 3.5 mph - N/A   Haze